Flag for Portugal Weather past 2 weeks in Portimão, Portugal

Now
82 °F

Passing clouds.


Feels Like: 85 °F
Forecast: 63 / 87 °F
Wind: 8 mph from Southwest

Location: Faro / Aeroporto

Current Time: Jul 6, 2015 at 3:33:32 PM

Latest Report: Jul 6, 2015 at 3:00 PM


Visibility: N/A

Pressure: 30.01 "Hg

Humidity: 62%

Dew point: 68 °F

Location of PortimãoLocation

Historic Weather in Portimão — Graph

°F

Portimão temperature yesterday

Maximum temperature yesterday: 84 °F (at 6:00 PM)
Minimum temperature yesterday: 75 °F (at 4:30 AM)
Average temperature yesterday: 80 °F

Past Weeks' High & Low Weather Summary

 TemperatureHumidityPressure
High95 °F (Jun 27, 10:00 AM)94% (Jun 29, 11:30 PM)30.15 "Hg (Jun 29, 11:30 PM)
Low61 °F (Jun 24, 6:00 AM)18% (Jun 27, 10:00 AM)29.95 "Hg (Jun 30, 3:30 AM)
Average75 °F60%30.03 "Hg
* Reported Jun 21 2:00 PM — Jul 6 2:30 PM, Portimão, Weather by CustomWeather, © 2015

Note: Actual official high and low records may vary slightly from our data, if they occured in-between our weather recording intervals... More about our weather records

Advertising

Portimão weather history for previous 24 hours

 ConditionsComfort  
Time TempWeatherWind HumidityBarometerVisibility
2:30 PM
Mon, Jul 6
82 °FPassing clouds.8 mph62%30.01 "HgN/A
2:00 PM84 °FPassing clouds.8 mph58%30.01 "HgN/A
1:30 PM82 °FSunny.9 mph62%30.01 "Hg10 mi
1:00 PM84 °FSunny.10 mph58%30.01 "Hg10 mi
12:30 PM82 °FSunny.9 mph58%30.01 "Hg10 mi
12:00 PM82 °FPassing clouds.6 mph58%30.01 "HgN/A
11:30 AM79 °FPassing clouds.6 mph61%30.01 "HgN/A
11:00 AM79 °FSunny.6 mph61%30.01 "Hg10 mi
10:30 AM77 °FPassing clouds.5 mph65%30.01 "HgN/A
10:00 AM77 °FSunny.6 mph61%30.01 "Hg10 mi
9:30 AM77 °FSunny.6 mph57%30.01 "Hg10 mi
9:00 AM77 °FPassing clouds.3 mph57%30.01 "HgN/A
8:30 AM77 °FSunny.5 mph61%30.01 "Hg10 mi
8:00 AM75 °FSunny.6 mph65%29.98 "Hg10 mi
7:30 AM75 °FSunny.2 mph57%29.98 "Hg10 mi
7:00 AM73 °FPassing clouds.3 mph53%29.98 "HgN/A
6:30 AM75 °FClear.5 mph50%29.98 "Hg10 mi
6:00 AM72 °FClear.No wind61%29.95 "Hg10 mi
5:30 AM72 °FClear.2 mph61%29.95 "Hg10 mi
5:00 AM75 °FClear.5 mph54%29.98 "Hg10 mi
4:30 AM75 °FClear.3 mph54%29.98 "Hg10 mi
4:00 AM72 °FClear.3 mph69%29.98 "Hg10 mi
3:30 AM73 °FClear.5 mph61%29.98 "Hg10 mi
3:00 AM73 °FClear.2 mph65%29.98 "Hg10 mi
2:30 AM77 °FClear.3 mph54%29.98 "Hg10 mi
2:00 AM81 °FClear.7 mph34%29.98 "Hg10 mi
1:30 AM81 °FClear.8 mph34%29.98 "Hg10 mi
1:00 AM82 °FClear.9 mph35%29.98 "Hg10 mi
12:30 AM82 °FClear.8 mph35%29.98 "Hg10 mi
12:00 AM82 °FClear.13 mph35%29.98 "Hg10 mi
11:30 PM
Sun, Jul 5
84 °FClear.10 mph33%29.98 "Hg10 mi
11:00 PM84 °FClear.9 mph33%29.98 "Hg10 mi
10:30 PM84 °FClear.9 mph35%29.98 "Hg10 mi
10:00 PM84 °FClear.12 mph37%29.98 "Hg10 mi
9:30 PM84 °FSunny.8 mph43%29.98 "Hg10 mi
9:00 PM84 °FPassing clouds.6 mph48%29.95 "HgN/A
8:30 PM79 °FPassing clouds.5 mph65%29.95 "HgN/A
8:00 PM79 °FSunny.8 mph61%29.95 "Hg10 mi
7:30 PM81 °FSunny.10 mph58%29.95 "Hg10 mi
7:00 PM82 °FSunny.9 mph55%29.95 "Hg10 mi
6:30 PM84 °FSunny.9 mph48%29.95 "Hg10 mi
6:00 PM84 °FSunny.9 mph48%29.98 "Hg10 mi
5:30 PM82 °FSunny.9 mph55%29.98 "Hg10 mi
5:00 PM82 °FSunny.9 mph55%29.98 "Hg10 mi
4:30 PM82 °FPassing clouds.8 mph51%29.98 "HgN/A
4:00 PM82 °FSunny.7 mph55%30.01 "Hg10 mi
3:30 PM81 °FSunny.8 mph58%30.01 "Hg10 mi
3:00 PM81 °FSunny.9 mph58%30.01 "Hg10 mi
Weather by CustomWeather, © 2015

See weather overviewHow to use our weather pages